,,,PA_Meas_PMT16A,,PR_Meas_QMR101_102,,RH_Meas_QMH101,,SR_Meas_QMS101,,TA_Meas_QMH101,,GenWind,,GenWind,
date,time,status,PA,status,PR,status,RH,status,SR,status,TA,status,DirAvg,status,SpdAvg,
2008-06-03, 00:00:04,VALID,1005.69,VALID,0,VALID,93.8276,VALID,0,VALID,24.2504,VALID,91,VALID,0.233594,
2008-06-03, 00:01:04,VALID,1005.69,VALID,0,VALID,93.8352,VALID,0,VALID,24.2504,VALID,91,VALID,0.457812,
2008-06-03, 00:02:04,VALID,1005.7,VALID,0,VALID,93.881,VALID,0,VALID,24.1902,VALID,91,VALID,0.524219,
2008-06-03, 00:03:04,VALID,1005.69,VALID,0,VALID,93.9878,VALID,0,VALID,24.2133,VALID,91,VALID,0.387891,
2008-06-03, 00:04:04,VALID,1005.68,VALID,0,VALID,94.1099,VALID,0,VALID,24.192,VALID,91,VALID,0.341016,
2008-06-03, 00:05:04,VALID,1005.66,VALID,0,VALID,94.1328,VALID,0,VALID,24.192,VALID,91,VALID,0.0558594,
2008-06-03, 00:06:04,VALID,1005.64,VALID,0,VALID,94.1328,VALID,0,VALID,24.192,VALID,91,VALID,0,
2008-06-03, 00:07:04,VALID,1005.65,VALID,0,VALID,94.2319,VALID,0,VALID,24.1726,VALID,91,VALID,0,
2008-06-03, 00:08:04,VALID,1005.62,VALID,0,VALID,94.2624,VALID,0,VALID,24.192,VALID,91,VALID,0,
2008-06-03, 00:09:04,VALID,1005.6,VALID,0,VALID,94.3082,VALID,0,VALID,24.1707,VALID,91,VALID,0,
2008-06-03, 00:10:04,VALID,1005.61,VALID,0,VALID,94.3387,VALID,0,VALID,24.1707,VALID,91,VALID,0,
2008-06-03, 00:11:04,VALID,1005.6,VALID,0,VALID,94.3464,VALID,0,VALID,24.1707,VALID,91,VALID,0.131641,
2008-06-03, 00:12:04,VALID,1005.56,VALID,0,VALID,94.3998,VALID,0,VALID,24.192,VALID,91,VALID,0.0601562,
2008-06-03, 00:13:04,VALID,1005.52,VALID,0,VALID,94.4074,VALID,0,VALID,24.1726,VALID,91,VALID,0,
2008-06-03, 00:14:04,VALID,1005.52,VALID,0,VALID,94.4227,VALID,0,VALID,24.1531,VALID,91,VALID,0,
2008-06-03, 00:15:04,VALID,1005.47,VALID,0,VALID,94.3998,VALID,0,VALID,24.1531,VALID,91,VALID,0,
2008-06-03, 00:16:04,VALID,1005.44,VALID,0,VALID,94.4532,VALID,0,VALID,24.1336,VALID,91,VALID,0,
2008-06-03, 00:17:04,VALID,1005.38,VALID,0,VALID,94.5981,VALID,0,VALID,24.1531,VALID,91,VALID,0,
2008-06-03, 00:18:04,VALID,1005.34,VALID,0,VALID,94.6134,VALID,0,VALID,24.1531,VALID,91,VALID,0.053125,
2008-06-03, 00:19:04,VALID,1005.33,VALID,0,VALID,94.5676,VALID,0,VALID,24.1336,VALID,91,VALID,0.138281,
2008-06-03, 00:20:04,VALID,1005.31,VALID,0,VALID,94.6515,VALID,0,VALID,24.1336,VALID,91,VALID,0,
2008-06-03, 00:21:04,VALID,1005.29,VALID,0,VALID,94.5829,VALID,0,VALID,24.0929,VALID,91,VALID,0.303125,
2008-06-03, 00:22:04,VALID,1005.28,VALID,0,VALID,94.5218,VALID,0,VALID,24.0734,VALID,91,VALID,0,
2008-06-03, 00:23:04,VALID,1005.26,VALID,0,VALID,94.4989,VALID,0,VALID,24.0752,VALID,91,VALID,0,
2008-06-03, 00:24:04,VALID,1005.25,VALID,0,VALID,94.5066,VALID,0,VALID,24.0539,VALID,91,VALID,0,
2008-06-03, 00:25:04,VALID,1005.27,VALID,0,VALID,94.5447,VALID,0,VALID,24.0345,VALID,91,VALID,0,
2008-06-03, 00:26:04,VALID,1005.25,VALID,0,VALID,94.6286,VALID,0,VALID,24.0345,VALID,91,VALID,0,
2008-06-03, 00:27:04,VALID,1005.25,VALID,0,VALID,94.5981,VALID,0,VALID,24.015,VALID,91,VALID,0,
2008-06-03, 00:28:04,VALID,1005.23,VALID,0,VALID,94.6439,VALID,0,VALID,24.0168,VALID,91,VALID,0,
2008-06-03, 00:29:04,VALID,1005.21,VALID,0,VALID,94.6515,VALID,0,VALID,24.0168,VALID,91,VALID,0,
2008-06-03, 00:30:04,VALID,1005.21,VALID,0,VALID,94.6897,VALID,0,VALID,24.0186,VALID,91,VALID,0,
2008-06-03, 00:31:04,VALID,1005.19,VALID,0,VALID,94.7507,VALID,0,VALID,23.9973,VALID,91,VALID,0,
2008-06-03, 00:32:04,VALID,1005.15,VALID,0,VALID,94.6973,VALID,0,VALID,23.9761,VALID,62,VALID,0.676953,
2008-06-03, 00:33:04,VALID,1005.11,VALID,0,VALID,94.7431,VALID,0,VALID,23.9779,VALID,49,VALID,0.796094,
2008-06-03, 00:34:04,VALID,1005.1,VALID,0,VALID,94.7888,VALID,0,VALID,23.9389,VALID,49,VALID,0.677734,
2008-06-03, 00:35:04,VALID,1005.09,VALID,0,VALID,94.8728,VALID,0,VALID,23.9195,VALID,48,VALID,0.530078,
2008-06-03, 00:36:04,VALID,1005.08,VALID,0,VALID,94.9414,VALID,0,VALID,23.9177,VALID,48,VALID,0.484766,
2008-06-03, 00:37:04,VALID,1005.07,VALID,0,VALID,94.9414,VALID,0,VALID,23.9389,VALID,48,VALID,0.452344,
2008-06-03, 00:38:04,VALID,1005.06,VALID,0,VALID,94.9948,VALID,0,VALID,23.9389,VALID,48,VALID,0.320703,
2008-06-03, 00:39:04,VALID,1005.06,VALID,0,VALID,95.0406,VALID,0,VALID,23.9195,VALID,48,VALID,0.286328,
2008-06-03, 00:40:04,VALID,1005.07,VALID,0,VALID,95.1016,VALID,0,VALID,23.9371,VALID,48,VALID,0.258203,
2008-06-03, 00:41:04,VALID,1005.08,VALID,0,VALID,95.155,VALID,0,VALID,23.9371,VALID,48,VALID,0.175,
2008-06-03, 00:42:04,VALID,1005.07,VALID,0,VALID,95.1703,VALID,0,VALID,23.9779,VALID,48,VALID,0.264453,
2008-06-03, 00:43:04,VALID,1005.05,VALID,0,VALID,95.1627,VALID,0,VALID,23.9566,VALID,48,VALID,0.152734,
2008-06-03, 00:44:04,VALID,1005.04,VALID,0,VALID,95.1398,VALID,0,VALID,23.9973,VALID,48,VALID,0,
2008-06-03, 00:45:04,VALID,1005.02,VALID,0,VALID,95.1398,VALID,0,VALID,23.9566,VALID,48,VALID,0,
2008-06-03, 00:46:04,VALID,1005.02,VALID,0,VALID,95.1932,VALID,0,VALID,23.9973,VALID,48,VALID,0,
2008-06-03, 00:47:04,VALID,1005.01,VALID,0,VALID,95.2161,VALID,0,VALID,23.9973,VALID,48,VALID,0.173828,
2008-06-03, 00:48:04,VALID,1005,VALID,0,VALID,95.2084,VALID,0,VALID,23.9973,VALID,48,VALID,0.0308594,
2008-06-03, 00:49:04,VALID,1004.97,VALID,0,VALID,95.1855,VALID,0,VALID,23.9779,VALID,48,VALID,0.00585938,
2008-06-03, 00:50:04,VALID,1004.96,VALID,0,VALID,95.2389,VALID,0,VALID,23.9566,VALID,48,VALID,0,
2008-06-03, 00:51:04,VALID,1004.96,VALID,0,VALID,95.2237,VALID,0.100563,VALID,23.9761,VALID,48,VALID,0.187109,
2008-06-03, 00:52:04,VALID,1004.94,VALID,0,VALID,95.2084,VALID,0.100563,VALID,23.9761,VALID,48,VALID,0.432031,
2008-06-03, 00:53:04,VALID,1004.93,VALID,0,VALID,95.1169,VALID,0,VALID,23.9566,VALID,48,VALID,0.378125,
2008-06-03, 00:54:04,VALID,1004.94,VALID,0,VALID,95.0787,VALID,0,VALID,23.9371,VALID,48,VALID,0.550391,
2008-06-03, 00:55:04,VALID,1004.89,VALID,0,VALID,95.0864,VALID,0,VALID,23.9195,VALID,34,VALID,0.504687,
2008-06-03, 00:56:04,VALID,1004.9,VALID,0,VALID,95.2389,VALID,0,VALID,23.9177,VALID,23,VALID,0.440234,
2008-06-03, 00:57:04,VALID,1004.91,VALID,0,VALID,95.2847,VALID,0,VALID,23.9177,VALID,18,VALID,0.442578,
2008-06-03, 00:58:04,VALID,1004.91,VALID,0,VALID,95.3686,VALID,0,VALID,23.9371,VALID,355,VALID,0.609375,
2008-06-03, 00:59:04,VALID,1004.92,VALID,0,VALID,95.2847,VALID,0.100563,VALID,23.9371,VALID,355,VALID,0.458594,
2008-06-03, 01:00:04,VALID,1004.91,VALID,0,VALID,95.2923,VALID,0.100563,VALID,23.9177,VALID,355,VALID,0.536719,
2008-06-03, 01:01:04,VALID,1004.91,VALID,0,VALID,95.4068,VALID,0.100563,VALID,23.9566,VALID,349,VALID,0.591406,
2008-06-03, 01:02:04,VALID,1004.93,VALID,0,VALID,95.2923,VALID,0.100563,VALID,23.9371,VALID,349,VALID,0.59375,
2008-06-03, 01:03:04,VALID,1004.91,VALID,0,VALID,95.3,VALID,0.100563,VALID,23.9389,VALID,349,VALID,0.673437,
2008-06-03, 01:04:04,VALID,1004.9,VALID,0,VALID,95.4068,VALID,0.100563,VALID,23.9389,VALID,349,VALID,0.875781,
2008-06-03, 01:05:04,VALID,1004.91,VALID,0,VALID,95.4373,VALID,0.100563,VALID,23.9779,VALID,348,VALID,0.504687,
2008-06-03, 01:06:04,VALID,1004.93,VALID,0,VALID,95.4373,VALID,0.100563,VALID,23.9566,VALID,348,VALID,0.578906,
2008-06-03, 01:07:04,VALID,1004.88,VALID,0,VALID,95.4754,VALID,0.100563,VALID,23.9566,VALID,348,VALID,0.526172,
2008-06-03, 01:08:04,VALID,1004.89,VALID,0,VALID,95.6204,VALID,0,VALID,24.015,VALID,347,VALID,0.476953,
2008-06-03, 01:09:04,VALID,1004.92,VALID,0,VALID,95.6356,VALID,0,VALID,24.0557,VALID,347,VALID,0.254687,
2008-06-03, 01:10:04,VALID,1004.91,VALID,0,VALID,95.567,VALID,0.100563,VALID,24.0539,VALID,347,VALID,0.29375,
2008-06-03, 01:11:04,VALID,1004.93,VALID,0,VALID,95.4526,VALID,0.100563,VALID,24.0734,VALID,347,VALID,0.436719,
2008-06-03, 01:12:04,VALID,1004.93,VALID,0,VALID,95.6356,VALID,0,VALID,24.1123,VALID,347,VALID,0.249609,
2008-06-03, 01:13:04,VALID,1004.91,VALID,0,VALID,95.5594,VALID,0,VALID,24.1318,VALID,347,VALID,0.410547,
2008-06-03, 01:14:04,VALID,1004.92,VALID,0,VALID,95.4907,VALID,0.100563,VALID,24.1531,VALID,347,VALID,0.0761719,
2008-06-03, 01:15:04,VALID,1004.92,VALID,0,VALID,95.5365,VALID,0,VALID,24.1513,VALID,347,VALID,0,
2008-06-03, 01:16:04,VALID,1004.94,VALID,0,VALID,95.4983,VALID,0,VALID,24.1707,VALID,347,VALID,0,
2008-06-03, 01:17:04,VALID,1004.96,VALID,0,VALID,95.4831,VALID,0.100563,VALID,24.1707,VALID,347,VALID,0,
2008-06-03, 01:18:04,VALID,1004.97,VALID,0,VALID,95.4144,VALID,0,VALID,24.192,VALID,347,VALID,0,
2008-06-03, 01:19:04,VALID,1004.92,VALID,0,VALID,95.4144,VALID,0,VALID,24.192,VALID,347,VALID,0,
2008-06-03, 01:20:04,VALID,1004.96,VALID,0,VALID,95.3534,VALID,0,VALID,24.192,VALID,347,VALID,0,
2008-06-03, 01:21:04,VALID,1004.91,VALID,0,VALID,95.3991,VALID,0,VALID,24.1902,VALID,347,VALID,0,
2008-06-03, 01:22:04,VALID,1004.9,VALID,0,VALID,95.3534,VALID,0.100563,VALID,24.1902,VALID,347,VALID,0,
2008-06-03, 01:23:04,VALID,1004.9,VALID,0,VALID,95.361,VALID,0,VALID,24.2097,VALID,347,VALID,0,
2008-06-03, 01:24:04,VALID,1004.87,VALID,0,VALID,95.3457,VALID,0,VALID,24.2097,VALID,347,VALID,0.328906,
2008-06-03, 01:25:04,VALID,1004.87,VALID,0,VALID,95.3229,VALID,0.100563,VALID,24.2097,VALID,347,VALID,0.424219,
2008-06-03, 01:26:04,VALID,1004.82,VALID,0,VALID,95.4831,VALID,0.100563,VALID,24.2894,VALID,12,VALID,0.382813,
2008-06-03, 01:27:04,VALID,1004.8,VALID,0,VALID,95.2237,VALID,0.100563,VALID,24.2699,VALID,12,VALID,0.468359,
2008-06-03, 01:28:04,VALID,1004.76,VALID,0,VALID,95.2161,VALID,0,VALID,24.2291,VALID,12,VALID,0.2125,
2008-06-03, 01:29:04,VALID,1004.74,VALID,0,VALID,95.2923,VALID,0,VALID,24.2486,VALID,12,VALID,0.252344,
2008-06-03, 01:30:04,VALID,1004.71,VALID,0,VALID,95.1474,VALID,0,VALID,24.2486,VALID,12,VALID,0.203516,
2008-06-03, 01:31:04,VALID,1004.7,VALID,0,VALID,95.2313,VALID,0.100563,VALID,24.2486,VALID,20,VALID,0.539453,
2008-06-03, 01:32:04,VALID,1004.67,VALID,0,VALID,95.2466,VALID,0.100563,VALID,24.2875,VALID,40,VALID,0.375781,
2008-06-03, 01:33:04,VALID,1004.68,VALID,0,VALID,95.3686,VALID,0,VALID,24.3265,VALID,28,VALID,0.663672,
2008-06-03, 01:34:04,VALID,1004.62,VALID,0,VALID,95.3457,VALID,0.100563,VALID,24.3849,VALID,27,VALID,0.813672,
2008-06-03, 01:35:04,VALID,1004.63,VALID,0,VALID,95.4449,VALID,0.100563,VALID,24.4628,VALID,17,VALID,0.926953,
2008-06-03, 01:36:04,VALID,1004.63,VALID,0,VALID,95.3229,VALID,0.100563,VALID,24.5406,VALID,328,VALID,0.523438,
2008-06-03, 01:37:04,VALID,1004.62,VALID,0,VALID,95.0635,VALID,0.100563,VALID,24.5796,VALID,14,VALID,0.671484,
2008-06-03, 01:38:04,VALID,1004.64,VALID,0,VALID,94.9872,VALID,0,VALID,24.6769,VALID,38,VALID,0.491016,
2008-06-03, 01:39:04,VALID,1004.6,VALID,0,VALID,94.7431,VALID,0,VALID,24.7372,VALID,38,VALID,0.253906,
2008-06-03, 01:40:04,VALID,1004.6,VALID,0,VALID,94.6057,VALID,0,VALID,24.7548,VALID,38,VALID,0.363281,
2008-06-03, 01:41:04,VALID,1004.57,VALID,0,VALID,94.4303,VALID,0.100563,VALID,24.8132,VALID,31,VALID,0.527734,
2008-06-03, 01:42:04,VALID,1004.57,VALID,0,VALID,94.1862,VALID,0,VALID,24.8716,VALID,27,VALID,0.325391,
2008-06-03, 01:43:04,VALID,1004.56,VALID,0,VALID,93.7589,VALID,0,VALID,24.893,VALID,27,VALID,0.349609,
2008-06-03, 01:44:04,VALID,1004.54,VALID,0,VALID,93.5072,VALID,0,VALID,24.8716,VALID,27,VALID,0.155859,
2008-06-03, 01:45:04,VALID,1004.56,VALID,0,VALID,93.408,VALID,0,VALID,24.8327,VALID,67,VALID,0.305859,
2008-06-03, 01:46:04,VALID,1004.55,VALID,0,VALID,93.3775,VALID,0,VALID,24.8151,VALID,67,VALID,0.358203,
2008-06-03, 01:47:04,VALID,1004.58,VALID,0,VALID,93.553,VALID,0.100563,VALID,24.7956,VALID,43,VALID,0.552734,
2008-06-03, 01:48:04,VALID,1004.58,VALID,0,VALID,93.5682,VALID,0.100563,VALID,24.7937,VALID,62,VALID,0.328906,
2008-06-03, 01:49:04,VALID,1004.59,VALID,0,VALID,93.4767,VALID,0,VALID,24.7937,VALID,62,VALID,0.441406,
2008-06-03, 01:50:04,VALID,1004.61,VALID,0,VALID,93.469,VALID,0.100563,VALID,24.7743,VALID,63,VALID,0.403125,
2008-06-03, 01:51:04,VALID,1004.63,VALID,0,VALID,93.3851,VALID,0,VALID,24.7372,VALID,63,VALID,0.0457031,
2008-06-03, 01:52:04,VALID,1004.64,VALID,0,VALID,93.5224,VALID,0,VALID,24.7372,VALID,63,VALID,0.153125,
2008-06-03, 01:53:04,VALID,1004.64,VALID,0,VALID,93.553,VALID,0,VALID,24.6983,VALID,63,VALID,0.0566406,
2008-06-03, 01:54:04,VALID,1004.62,VALID,0,VALID,93.6903,VALID,0,VALID,24.7372,VALID,63,VALID,0.25,
2008-06-03, 01:55:04,VALID,1004.65,VALID,0,VALID,93.7513,VALID,0,VALID,24.7567,VALID,86,VALID,0.590234,
2008-06-03, 01:56:04,VALID,1004.65,VALID,0,VALID,93.5682,VALID,0,VALID,24.7761,VALID,88,VALID,0.497656,
2008-06-03, 01:57:04,VALID,1004.66,VALID,0,VALID,93.5301,VALID,0,VALID,24.7956,VALID,89,VALID,0.525391,
2008-06-03, 01:58:04,VALID,1004.66,VALID,0,VALID,93.5301,VALID,0,VALID,24.8346,VALID,73,VALID,0.666406,
2008-06-03, 01:59:04,VALID,1004.67,VALID,0,VALID,93.2936,VALID,0,VALID,24.893,VALID,74,VALID,0.328906,
2008-06-03, 02:00:04,VALID,1004.64,VALID,0,VALID,93.1029,VALID,0,VALID,24.9319,VALID,78,VALID,0.503516,
2008-06-03, 02:01:04,VALID,1004.63,VALID,0,VALID,92.8816,VALID,0,VALID,24.9319,VALID,78,VALID,0.548828,
2008-06-03, 02:02:04,VALID,1004.63,VALID,0,VALID,92.6833,VALID,0,VALID,24.9319,VALID,77,VALID,0.462109,
2008-06-03, 02:03:04,VALID,1004.6,VALID,0,VALID,92.5765,VALID,0,VALID,24.93,VALID,76,VALID,0.442578,
2008-06-03, 02:04:04,VALID,1004.59,VALID,0,VALID,92.4544,VALID,0,VALID,24.9514,VALID,76,VALID,0.00273437,
2008-06-03, 02:05:04,VALID,1004.56,VALID,0,VALID,92.3476,VALID,0,VALID,24.9319,VALID,76,VALID,0.157813,
2008-06-03, 02:06:04,VALID,1004.55,VALID,0,VALID,92.3247,VALID,0,VALID,24.8911,VALID,76,VALID,0.324609,
2008-06-03, 02:07:04,VALID,1004.51,VALID,0,VALID,92.3247,VALID,0,VALID,24.9125,VALID,35,VALID,0.698828,
2008-06-03, 02:08:04,VALID,1004.5,VALID,0,VALID,92.2789,VALID,0,VALID,24.893,VALID,33,VALID,0.569531,
2008-06-03, 02:09:04,VALID,1004.44,VALID,0,VALID,92.34,VALID,0,VALID,24.893,VALID,59,VALID,1.00078,
2008-06-03, 02:10:04,VALID,1004.44,VALID,0,VALID,92.2179,VALID,0,VALID,24.9125,VALID,29,VALID,0.588281,
2008-06-03, 02:11:04,VALID,1004.41,VALID,0,VALID,92.2713,VALID,0.100563,VALID,24.9125,VALID,7,VALID,1.20547,
2008-06-03, 02:12:04,VALID,1004.37,VALID,0,VALID,92.2332,VALID,0.100563,VALID,24.93,VALID,29,VALID,0.841016,
2008-06-03, 02:13:04,VALID,1004.33,VALID,0,VALID,92.1416,VALID,0,VALID,24.9514,VALID,28,VALID,0.430078,
2008-06-03, 02:14:04,VALID,1004.33,VALID,0,VALID,92.1035,VALID,0,VALID,24.9709,VALID,28,VALID,0.346484,
2008-06-03, 02:15:04,VALID,1004.32,VALID,0,VALID,92.0806,VALID,0,VALID,24.9904,VALID,27,VALID,1.14141,
2008-06-03, 02:16:04,VALID,1004.33,VALID,0,VALID,91.9128,VALID,0,VALID,25.0682,VALID,39,VALID,0.732813,
2008-06-03, 02:17:04,VALID,1004.36,VALID,0,VALID,91.7602,VALID,0,VALID,25.0858,VALID,89,VALID,0.630078,
2008-06-03, 02:18:04,VALID,1004.38,VALID,0,VALID,91.6152,VALID,0,VALID,25.0858,VALID,88,VALID,0.284375,
2008-06-03, 02:19:04,VALID,1004.37,VALID,0,VALID,91.5771,VALID,0,VALID,25.0663,VALID,88,VALID,0,
2008-06-03, 02:20:04,VALID,1004.38,VALID,0,VALID,91.5771,VALID,0,VALID,25.0877,VALID,61,VALID,0.676562,
2008-06-03, 02:21:04,VALID,1004.4,VALID,0,VALID,91.4169,VALID,0,VALID,25.1053,VALID,69,VALID,0.963672,
2008-06-03, 02:22:04,VALID,1004.37,VALID,0,VALID,91.188,VALID,0,VALID,25.1656,VALID,84,VALID,0.937109,
2008-06-03, 02:23:04,VALID,1004.38,VALID,0,VALID,90.8981,VALID,0,VALID,25.2221,VALID,120,VALID,0.723437,
2008-06-03, 02:24:04,VALID,1004.36,VALID,0,VALID,90.5701,VALID,0,VALID,25.2825,VALID,92,VALID,0.405859,
2008-06-03, 02:25:04,VALID,1004.36,VALID,0,VALID,90.3717,VALID,0,VALID,25.3019,VALID,92,VALID,0.415625,
2008-06-03, 02:26:04,VALID,1004.36,VALID,0,VALID,90.2115,VALID,0,VALID,25.3,VALID,82,VALID,0.370703,
2008-06-03, 02:27:04,VALID,1004.38,VALID,0,VALID,89.9445,VALID,0,VALID,25.339,VALID,110,VALID,0.742188,
2008-06-03, 02:28:04,VALID,1004.43,VALID,0,VALID,89.708,VALID,0,VALID,25.4188,VALID,73,VALID,0.438672,
2008-06-03, 02:29:04,VALID,1004.43,VALID,0,VALID,89.4868,VALID,0,VALID,25.4383,VALID,84,VALID,0.391797,
2008-06-03, 02:30:04,VALID,1004.47,VALID,0,VALID,89.3266,VALID,0,VALID,25.4383,VALID,84,VALID,0.210547,
2008-06-03, 02:31:04,VALID,1004.46,VALID,0,VALID,89.2884,VALID,0.100563,VALID,25.4383,VALID,87,VALID,0.482031,
2008-06-03, 02:32:04,VALID,1004.46,VALID,0,VALID,88.8231,VALID,0,VALID,25.5357,VALID,77,VALID,0.612891,
2008-06-03, 02:33:04,VALID,1004.48,VALID,0,VALID,88.6323,VALID,0,VALID,25.5746,VALID,94,VALID,0.690625,
2008-06-03, 02:34:04,VALID,1004.46,VALID,0,VALID,88.495,VALID,0,VALID,25.5551,VALID,138,VALID,0.634766,
2008-06-03, 02:35:04,VALID,1004.49,VALID,0,VALID,88.4798,VALID,0,VALID,25.5532,VALID,138,VALID,0.114063,
2008-06-03, 02:36:04,VALID,1004.51,VALID,0,VALID,88.4416,VALID,0,VALID,25.5746,VALID,133,VALID,0.329688,
2008-06-03, 02:37:04,VALID,1004.55,VALID,0,VALID,88.3043,VALID,0,VALID,25.5746,VALID,90,VALID,0.676172,
2008-06-03, 02:38:04,VALID,1004.59,VALID,0,VALID,88.0144,VALID,0,VALID,25.633,VALID,119,VALID,1.19336,
2008-06-03, 02:39:04,VALID,1004.64,VALID,0,VALID,87.7779,VALID,0,VALID,25.6525,VALID,147,VALID,0.808984,
2008-06-03, 02:40:04,VALID,1004.64,VALID,0,VALID,87.8771,VALID,0,VALID,25.6525,VALID,158,VALID,0.535547,
2008-06-03, 02:41:04,VALID,1004.64,VALID,0,VALID,87.7779,VALID,0,VALID,25.6311,VALID,162,VALID,0.534375,
2008-06-03, 02:42:04,VALID,1004.65,VALID,0,VALID,87.755,VALID,0,VALID,25.633,VALID,162,VALID,0.367969,
2008-06-03, 02:43:04,VALID,1004.63,VALID,0,VALID,87.7321,VALID,0,VALID,25.633,VALID,164,VALID,0.597656,
2008-06-03, 02:44:04,VALID,1004.63,VALID,0,VALID,87.694,VALID,0,VALID,25.6116,VALID,179,VALID,0.606641,
2008-06-03, 02:45:04,VALID,1004.59,VALID,0,VALID,87.7855,VALID,0,VALID,25.6136,VALID,180,VALID,0.453516,
2008-06-03, 02:46:04,VALID,1004.59,VALID,0,VALID,87.9305,VALID,0,VALID,25.5941,VALID,180,VALID,0.520312,
2008-06-03, 02:47:04,VALID,1004.57,VALID,0,VALID,87.9991,VALID,0,VALID,25.5551,VALID,179,VALID,0.659375,
2008-06-03, 02:48:04,VALID,1004.54,VALID,0,VALID,88.3729,VALID,0,VALID,25.5357,VALID,174,VALID,0.180859,
2008-06-03, 02:49:04,VALID,1004.48,VALID,0,VALID,88.5026,VALID,0,VALID,25.4577,VALID,174,VALID,0.143359,
2008-06-03, 02:50:04,VALID,1004.41,VALID,0,VALID,88.8993,VALID,0,VALID,25.3798,VALID,174,VALID,0.307031,
2008-06-03, 02:51:04,VALID,1004.36,VALID,0,VALID,89.2426,VALID,0,VALID,25.2825,VALID,174,VALID,0.355859,
2008-06-03, 02:52:04,VALID,1004.29,VALID,0,VALID,89.5554,VALID,0,VALID,25.1851,VALID,13,VALID,0.637109,
2008-06-03, 02:53:04,VALID,1004.25,VALID,0,VALID,90.0437,VALID,0,VALID,25.1072,VALID,12,VALID,0.413281,
2008-06-03, 02:54:04,VALID,1004.25,VALID,0,VALID,90.4175,VALID,0,VALID,25.0098,VALID,4,VALID,0.103125,
2008-06-03, 02:55:04,VALID,1004.25,VALID,0,VALID,90.7455,VALID,0,VALID,24.93,VALID,4,VALID,0.0078125,
2008-06-03, 02:56:04,VALID,1004.26,VALID,0,VALID,90.9668,VALID,0,VALID,24.8735,VALID,3,VALID,0.417578,
2008-06-03, 02:57:04,VALID,1004.26,VALID,0,VALID,91.2338,VALID,0,VALID,24.7937,VALID,4,VALID,0.463672,
2008-06-03, 02:58:04,VALID,1004.28,VALID,0,VALID,91.5618,VALID,0,VALID,24.7372,VALID,4,VALID,0.351953,
2008-06-03, 02:59:04,VALID,1004.32,VALID,0,VALID,91.8288,VALID,0,VALID,24.6983,VALID,4,VALID,0.176563,
2008-06-03, 03:00:04,VALID,1004.32,VALID,0,VALID,92.1035,VALID,0,VALID,24.638,VALID,4,VALID,0.00078125,
2008-06-03, 03:01:04,VALID,1004.34,VALID,0,VALID,92.3018,VALID,0,VALID,24.6204,VALID,3,VALID,0,
2008-06-03, 03:02:04,VALID,1004.33,VALID,0,VALID,92.4925,VALID,0,VALID,24.5814,VALID,4,VALID,0,
2008-06-03, 03:03:04,VALID,1004.36,VALID,0,VALID,92.8358,VALID,0,VALID,24.5814,VALID,94,VALID,0.732422,
2008-06-03, 03:04:04,VALID,1004.35,VALID,0,VALID,92.9884,VALID,0,VALID,24.5425,VALID,137,VALID,0.552344,
2008-06-03, 03:05:04,VALID,1004.31,VALID,0,VALID,93.1715,VALID,0,VALID,24.5035,VALID,18,VALID,1.00742,
2008-06-03, 03:06:04,VALID,1004.32,VALID,0,VALID,93.3622,VALID,0,VALID,24.5035,VALID,5,VALID,0.754687,
2008-06-03, 03:07:04,VALID,1004.34,VALID,0,VALID,93.7666,VALID,0,VALID,24.562,VALID,80,VALID,0.63125,
2008-06-03, 03:08:04,VALID,1004.38,VALID,0,VALID,93.5453,VALID,0,VALID,24.6788,VALID,101,VALID,0.914844,
2008-06-03, 03:09:04,VALID,1004.41,VALID,0,VALID,93.1181,VALID,0,VALID,24.6788,VALID,92,VALID,0.927734,
2008-06-03, 03:10:04,VALID,1004.42,VALID,0,VALID,93.2554,VALID,0,VALID,24.7567,VALID,119,VALID,1.21563,
2008-06-03, 03:11:04,VALID,1004.45,VALID,0,VALID,93.2097,VALID,0,VALID,24.8151,VALID,109,VALID,1.45078,
2008-06-03, 03:12:04,VALID,1004.49,VALID,0,VALID,93.0342,VALID,0,VALID,24.8327,VALID,123,VALID,1.475,
2008-06-03, 03:13:04,VALID,1004.48,VALID,0,VALID,92.9426,VALID,0,VALID,24.893,VALID,126,VALID,1.4418,
2008-06-03, 03:14:04,VALID,1004.55,VALID,0,VALID,92.7977,VALID,0,VALID,24.9319,VALID,90,VALID,1.7418,
2008-06-03, 03:15:04,VALID,1004.54,VALID,0,VALID,92.7824,VALID,0,VALID,24.9319,VALID,92,VALID,0.923047,
2008-06-03, 03:16:04,VALID,1004.6,VALID,0,VALID,92.7672,VALID,0,VALID,24.9514,VALID,121,VALID,1.29375,
2008-06-03, 03:17:04,VALID,1004.64,VALID,0,VALID,92.8892,VALID,0,VALID,24.9904,VALID,119,VALID,1.58242,
2008-06-03, 03:18:04,VALID,1004.69,VALID,0,VALID,92.6222,VALID,0,VALID,24.969,VALID,89,VALID,1.82734,
2008-06-03, 03:19:04,VALID,1004.64,VALID,0,VALID,92.4544,VALID,0,VALID,24.9885,VALID,11,VALID,1.49063,
2008-06-03, 03:20:04,VALID,1004.63,VALID,0,VALID,91.1804,VALID,0,VALID,24.93,VALID,87,VALID,1.65742,
2008-06-03, 03:21:04,VALID,1004.65,VALID,0,VALID,90.8523,VALID,0,VALID,24.9125,VALID,83,VALID,1.52852,
2008-06-03, 03:22:04,VALID,1004.7,VALID,0,VALID,90.2802,VALID,0,VALID,24.9125,VALID,96,VALID,0.866797,
2008-06-03, 03:23:04,VALID,1004.7,VALID,0,VALID,89.8987,VALID,0,VALID,24.893,VALID,138,VALID,1.09609,
2008-06-03, 03:24:04,VALID,1004.76,VALID,0,VALID,90.2802,VALID,0,VALID,24.8735,VALID,87,VALID,0.796094,
2008-06-03, 03:25:04,VALID,1004.74,VALID,0,VALID,89.4715,VALID,0,VALID,24.8346,VALID,127,VALID,1.06289,
2008-06-03, 03:26:04,VALID,1004.74,VALID,0,VALID,89.1206,VALID,0,VALID,24.8151,VALID,118,VALID,1.38047,
2008-06-03, 03:27:04,VALID,1004.71,VALID,0,VALID,89.1664,VALID,0,VALID,24.8151,VALID,147,VALID,0.597656,
2008-06-03, 03:28:04,VALID,1004.71,VALID,0,VALID,89.3876,VALID,0,VALID,24.8151,VALID,138,VALID,0.378906,
2008-06-03, 03:29:04,VALID,1004.72,VALID,0,VALID,89.2121,VALID,0,VALID,24.7956,VALID,102,VALID,0.855469,
2008-06-03, 03:30:04,VALID,1004.73,VALID,0,VALID,89.3418,VALID,0,VALID,24.7761,VALID,104,VALID,0.820703,
2008-06-03, 03:31:04,VALID,1004.68,VALID,0,VALID,89.441,VALID,0,VALID,24.7761,VALID,115,VALID,0.372266,
2008-06-03, 03:32:04,VALID,1004.64,VALID,0,VALID,89.5936,VALID,0,VALID,24.7353,VALID,115,VALID,0.159375,
2008-06-03, 03:33:04,VALID,1004.65,VALID,0,VALID,89.3113,VALID,0,VALID,24.7177,VALID,70,VALID,0.657812,
2008-06-03, 03:34:04,VALID,1004.64,VALID,0,VALID,89.8148,VALID,0,VALID,24.6983,VALID,131,VALID,0.512891,
2008-06-03, 03:35:04,VALID,1004.63,VALID,0,VALID,89.5325,VALID,0,VALID,24.6788,VALID,180,VALID,0.432813,
2008-06-03, 03:36:04,VALID,1004.6,VALID,0,VALID,89.1816,VALID,0,VALID,24.6788,VALID,161,VALID,0.669922,
2008-06-03, 03:37:04,VALID,1004.54,VALID,0,VALID,89.5402,VALID,0,VALID,24.6769,VALID,158,VALID,0.266797,
2008-06-03, 03:38:04,VALID,1004.5,VALID,0,VALID,90.1276,VALID,0,VALID,24.6983,VALID,158,VALID,0.320703,
2008-06-03, 03:39:04,VALID,1004.48,VALID,0,VALID,90.3793,VALID,0,VALID,24.6788,VALID,280,VALID,0.591406,
2008-06-03, 03:40:04,VALID,1004.48,VALID,0,VALID,90.6158,VALID,0,VALID,24.6398,VALID,316,VALID,0.309375,
2008-06-03, 03:41:04,VALID,1004.43,VALID,0,VALID,90.8752,VALID,0,VALID,24.5814,VALID,19,VALID,0.698438,
2008-06-03, 03:42:04,VALID,1004.41,VALID,0,VALID,91.0736,VALID,0,VALID,24.5035,VALID,21,VALID,0.544531,
2008-06-03, 03:43:04,VALID,1004.4,VALID,0,VALID,91.4703,VALID,0,VALID,24.4451,VALID,21,VALID,0.387891,
2008-06-03, 03:44:04,VALID,1004.37,VALID,0,VALID,91.722,VALID,0,VALID,24.4062,VALID,21,VALID,0.394531,
2008-06-03, 03:45:04,VALID,1004.32,VALID,0,VALID,91.8212,VALID,0,VALID,24.3478,VALID,21,VALID,0.363281,
2008-06-03, 03:46:04,VALID,1004.27,VALID,0,VALID,92.0882,VALID,0,VALID,24.3088,VALID,21,VALID,0.651172,